User: anonymous   Login
Location: Ulm
(48.3980°N, 9.9777°E)
Time: 05:48:59
(UTC+02:00)
Language:

ISS - Orbit

View from above orbital plane
View from above orbital plane
View from above satellite
View from above satellite

Ground track
Ground track

The orbit data is extracted from the following two-line orbital elements,

1 25544U 98067A   18146.53033623  .00016717  00000-0  10270-3 0  9013
2 25544  51.6370 126.6772 0003778 119.3990 240.7540 15.54097749 35148
Epoch (UTC): 26 May 2018 12:43:41
Eccentricity: 0.0003778
inclination: 51.6370°
perigee height: 402 km
apogee height: 407 km
right ascension of ascending node: 126.6772°
argument of perigee: 119.3990°
revolutions per day: 15.54097749
mean anomaly at epoch: 240.7540°
orbit number at epoch: 3514

The dashed part of the orbit path shows where the satellite is in the earth's shadow,  

DLR